CXADT SUPE-SUMO

Flight info

Callsign CXADT
Flight time N/A
Altitude 8000
Route LDS DCT AROMO
Aircraft C337/L-SFG/C

Departure

Time N/A
Airport El Jagüel / Punta del Este Airport (SUPE)

Arrival

Time 2026-05-05 16:37
Airport Cerro Largo International Airport (SUMO)
Time Latitude Longitude Altitude Speed Heading
2026-05-05 15:43 -34.49998 -54.80574 2909 ft 155 kts 10°
2026-05-05 15:44 -34.48940 -54.80259 2910 ft 156 kts 10°
2026-05-05 15:44 -34.47878 -54.79947 2907 ft 157 kts 10°
2026-05-05 15:44 -34.46828 -54.79637 2910 ft 158 kts 10°
2026-05-05 15:44 -34.45762 -54.79322 2910 ft 157 kts 10°
2026-05-05 15:45 -34.44709 -54.79020 2910 ft 156 kts 10°
2026-05-05 15:45 -34.43638 -54.78719 2914 ft 158 kts
2026-05-05 15:45 -34.42569 -54.78408 2910 ft 157 kts 10°
2026-05-05 15:45 -34.41511 -54.78086 2910 ft 156 kts 10°
2026-05-05 15:46 -34.40453 -54.77776 2911 ft 157 kts 10°
2026-05-05 15:46 -34.39391 -54.77472 2911 ft 157 kts 10°
2026-05-05 15:46 -34.38335 -54.77166 2910 ft 155 kts
2026-05-05 15:46 -34.37286 -54.76849 2910 ft 156 kts 10°
2026-05-05 15:47 -34.36227 -54.76531 2914 ft 157 kts 10°
2026-05-05 15:47 -34.35526 -54.76319 2915 ft 157 kts 10°
2026-05-05 15:47 -34.34101 -54.75899 2912 ft 155 kts
2026-05-05 15:47 -34.33032 -54.75732 2914 ft 155 kts
2026-05-05 15:48 -34.31957 -54.75583 2916 ft 156 kts
2026-05-05 15:48 -34.30870 -54.75429 2922 ft 159 kts
2026-05-05 15:48 -34.29788 -54.75264 2922 ft 160 kts
2026-05-05 15:48 -34.28680 -54.75091 2916 ft 159 kts
2026-05-05 15:49 -34.27589 -54.74924 2918 ft 159 kts
2026-05-05 15:49 -34.26487 -54.74768 2917 ft 159 kts
2026-05-05 15:49 -34.25394 -54.74614 2912 ft 157 kts
2026-05-05 15:49 -34.24316 -54.74397 2909 ft 155 kts
2026-05-05 15:50 -34.23261 -54.74155 2912 ft 155 kts
2026-05-05 15:50 -34.22204 -54.73911 2904 ft 153 kts
2026-05-05 15:50 -34.21157 -54.73665 2909 ft 154 kts
2026-05-05 15:50 -34.20109 -54.73415 2907 ft 153 kts
2026-05-05 15:51 -34.19081 -54.73035 2908 ft 155 kts 15°
2026-05-05 15:51 -34.18064 -54.72601 2905 ft 155 kts 15°
2026-05-05 15:51 -34.17043 -54.72157 2904 ft 156 kts 15°
2026-05-05 15:51 -34.16027 -54.71710 2908 ft 155 kts 15°
2026-05-05 15:52 -34.15014 -54.71259 2909 ft 156 kts 16°
2026-05-05 15:52 -34.13993 -54.70805 2911 ft 157 kts 15°
2026-05-05 15:52 -34.12968 -54.70349 2911 ft 157 kts 16°
2026-05-05 15:52 -34.11956 -54.69901 2913 ft 157 kts 16°
2026-05-05 15:53 -34.10927 -54.69446 2912 ft 157 kts 15°
2026-05-05 15:53 -34.09898 -54.69006 2907 ft 156 kts 13°
2026-05-05 15:53 -34.08863 -54.68622 2906 ft 155 kts 12°
2026-05-05 15:53 -34.07832 -54.68253 2904 ft 154 kts 12°
2026-05-05 15:54 -34.06798 -54.67891 2905 ft 155 kts 12°
2026-05-05 15:54 -34.05759 -54.67527 2908 ft 155 kts 12°
2026-05-05 15:54 -34.04723 -54.67134 2907 ft 156 kts 13°
2026-05-05 15:54 -34.03690 -54.66733 2908 ft 156 kts 13°
2026-05-05 15:55 -34.02655 -54.66335 2910 ft 157 kts 14°
2026-05-05 15:55 -34.01615 -54.65933 2909 ft 156 kts 13°
2026-05-05 15:55 -34.00591 -54.65529 2910 ft 154 kts 14°
2026-05-05 15:55 -33.99568 -54.65125 2907 ft 155 kts 14°
2026-05-05 15:56 -33.98533 -54.64720 2909 ft 157 kts 14°
2026-05-05 15:56 -33.97500 -54.64320 2907 ft 156 kts 13°
2026-05-05 15:56 -33.96459 -54.63914 2912 ft 156 kts 13°
2026-05-05 15:56 -33.95426 -54.63510 2907 ft 156 kts 14°
2026-05-05 15:57 -33.94396 -54.63107 2909 ft 155 kts 13°
2026-05-05 15:57 -33.93364 -54.62705 2908 ft 156 kts 13°
2026-05-05 15:57 -33.92342 -54.62306 2906 ft 156 kts 13°
2026-05-05 15:57 -33.91316 -54.61903 2904 ft 155 kts 13°
2026-05-05 15:58 -33.90296 -54.61500 2902 ft 154 kts 14°
2026-05-05 15:58 -33.89265 -54.61096 2914 ft 157 kts 13°
2026-05-05 15:58 -33.88217 -54.60689 2912 ft 158 kts 13°
2026-05-05 15:58 -33.87169 -54.60282 2909 ft 158 kts 13°
2026-05-05 15:59 -33.86131 -54.59878 2905 ft 156 kts 13°
2026-05-05 15:59 -33.85105 -54.59475 2906 ft 154 kts 13°
2026-05-05 15:59 -33.84084 -54.59071 2904 ft 155 kts 13°
2026-05-05 15:59 -33.83058 -54.58669 2904 ft 156 kts 13°
2026-05-05 16:00 -33.82024 -54.58270 2903 ft 156 kts 13°
2026-05-05 16:00 -33.81005 -54.57893 2907 ft 155 kts 12°
2026-05-05 16:00 -33.79977 -54.57516 2909 ft 155 kts 13°
2026-05-05 16:00 -33.78933 -54.57138 2912 ft 157 kts 12°
2026-05-05 16:01 -33.77885 -54.56760 2913 ft 158 kts 12°
2026-05-05 16:01 -33.76831 -54.56383 2909 ft 158 kts 12°
2026-05-05 16:01 -33.75783 -54.56008 2908 ft 157 kts 12°
2026-05-05 16:01 -33.74739 -54.55634 2905 ft 156 kts 12°
2026-05-05 16:02 -33.73702 -54.55261 2909 ft 155 kts 12°
2026-05-05 16:02 -33.73021 -54.55015 2915 ft 155 kts 12°
2026-05-05 16:02 -33.71986 -54.54646 2911 ft 155 kts 12°
2026-05-05 16:02 -33.70952 -54.54281 2909 ft 155 kts 12°
2026-05-05 16:03 -33.69916 -54.53915 2909 ft 155 kts 12°
2026-05-05 16:03 -33.68885 -54.53549 2912 ft 155 kts 12°
2026-05-05 16:03 -33.67847 -54.53182 2912 ft 156 kts 12°
2026-05-05 16:03 -33.66800 -54.52818 2908 ft 157 kts 12°
2026-05-05 16:04 -33.65751 -54.52456 2917 ft 157 kts 12°
2026-05-05 16:04 -33.64702 -54.52095 2909 ft 156 kts 12°
2026-05-05 16:04 -33.63677 -54.51742 2912 ft 155 kts 12°
2026-05-05 16:04 -33.62632 -54.51393 2905 ft 159 kts 11°
2026-05-05 16:05 -33.61887 -54.51178 2904 ft 166 kts 10°
2026-05-05 16:05 -33.60935 -54.50925 2906 ft 169 kts
2026-05-05 16:05 -33.59770 -54.50625 2903 ft 172 kts
2026-05-05 16:05 -33.58598 -54.50317 2908 ft 173 kts
2026-05-05 16:06 -33.57423 -54.50011 2905 ft 173 kts
2026-05-05 16:06 -33.56246 -54.49704 2909 ft 173 kts
2026-05-05 16:06 -33.55077 -54.49388 2910 ft 172 kts
2026-05-05 16:06 -33.53908 -54.49068 2912 ft 172 kts
2026-05-05 16:07 -33.52736 -54.48760 2908 ft 173 kts
2026-05-05 16:07 -33.51564 -54.48454 2906 ft 172 kts
2026-05-05 16:07 -33.50398 -54.48149 2911 ft 174 kts
2026-05-05 16:07 -33.49203 -54.47831 2909 ft 173 kts
2026-05-05 16:08 -33.48027 -54.47703 2903 ft 169 kts 351°
2026-05-05 16:08 -33.46878 -54.47921 2908 ft 171 kts 348°
2026-05-05 16:08 -33.45700 -54.48154 2909 ft 173 kts 348°
2026-05-05 16:08 -33.44509 -54.48374 2912 ft 174 kts 349°
2026-05-05 16:09 -33.43312 -54.48589 2918 ft 174 kts 349°
2026-05-05 16:09 -33.42112 -54.48800 2910 ft 173 kts 349°
2026-05-05 16:09 -33.40913 -54.48911 2904 ft 173 kts 359°
2026-05-05 16:09 -33.39712 -54.48788 2904 ft 173 kts
2026-05-05 16:10 -33.38512 -54.48643 2905 ft 173 kts
2026-05-05 16:10 -33.37318 -54.48504 2910 ft 172 kts
2026-05-05 16:10 -33.36124 -54.48372 2907 ft 172 kts
2026-05-05 16:10 -33.34933 -54.48247 2907 ft 172 kts
2026-05-05 16:11 -33.33765 -54.48037 2907 ft 174 kts 12°
2026-05-05 16:11 -33.30262 -54.46633 2916 ft 177 kts 15°
2026-05-05 16:12 -33.29084 -54.46159 2917 ft 179 kts 15°
2026-05-05 16:12 -33.26723 -54.45229 2913 ft 177 kts 15°
2026-05-05 16:13 -33.23247 -54.43833 2909 ft 175 kts 15°
2026-05-05 16:13 -33.22106 -54.43384 2907 ft 174 kts 15°
2026-05-05 16:13 -33.20952 -54.42921 2907 ft 175 kts 15°
2026-05-05 16:14 -33.18643 -54.42004 2907 ft 174 kts 15°
2026-05-05 16:14 -33.16332 -54.41107 2911 ft 175 kts 15°
2026-05-05 16:15 -33.14000 -54.40184 2914 ft 177 kts 15°
2026-05-05 16:15 -33.11646 -54.39284 2912 ft 179 kts 15°
2026-05-05 16:16 -33.09307 -54.38363 2916 ft 177 kts 15°
2026-05-05 16:16 -33.06986 -54.37456 2908 ft 174 kts 15°
2026-05-05 16:17 -33.04693 -54.36564 2907 ft 172 kts 15°
2026-05-05 16:17 -33.03546 -54.36108 2906 ft 175 kts 15°
2026-05-05 16:18 -33.01237 -54.35207 2908 ft 174 kts 15°
2026-05-05 16:18 -33.00091 -54.34759 2907 ft 173 kts 14°
2026-05-05 16:18 -32.97808 -54.33850 2905 ft 173 kts 14°
2026-05-05 16:19 -32.96673 -54.33392 2906 ft 172 kts 15°
2026-05-05 16:19 -32.95535 -54.32937 2907 ft 173 kts 15°
2026-05-05 16:19 -32.93237 -54.32013 2919 ft 180 kts 14°
2026-05-05 16:20 -32.90833 -54.31068 2906 ft 179 kts 14°
2026-05-05 16:20 -32.88497 -54.30115 2907 ft 176 kts 15°
2026-05-05 16:21 -32.86193 -54.29179 2911 ft 175 kts 14°
2026-05-05 16:22 -32.82698 -54.27770 2906 ft 177 kts 14°
2026-05-05 16:22 -32.80406 -54.26835 2904 ft 172 kts 15°
2026-05-05 16:23 -32.78149 -54.25933 2906 ft 172 kts 14°
2026-05-05 16:23 -32.77016 -54.25481 2908 ft 172 kts 14°
2026-05-05 16:23 -32.74742 -54.24572 2909 ft 172 kts 14°
2026-05-05 16:24 -32.73609 -54.24119 2906 ft 172 kts 15°
2026-05-05 16:24 -32.72477 -54.23668 2905 ft 172 kts 14°
2026-05-05 16:24 -32.70191 -54.22781 2905 ft 173 kts 14°
2026-05-05 16:25 -32.69047 -54.22349 2909 ft 173 kts 14°
2026-05-05 16:25 -32.66782 -54.21456 2910 ft 172 kts 14°
2026-05-05 16:25 -32.65641 -54.21000 2909 ft 172 kts 14°
2026-05-05 16:26 -32.63379 -54.20095 2909 ft 171 kts 14°
2026-05-05 16:26 -32.61119 -54.19192 2912 ft 172 kts 15°
2026-05-05 16:27 -32.59983 -54.18747 2914 ft 172 kts 14°
2026-05-05 16:27 -32.58855 -54.18299 2917 ft 170 kts 14°
2026-05-05 16:27 -32.57732 -54.17842 2912 ft 170 kts 14°
2026-05-05 16:27 -32.56613 -54.17392 2916 ft 170 kts 15°
2026-05-05 16:28 -32.55485 -54.16953 2917 ft 172 kts 14°
2026-05-05 16:28 -32.54350 -54.16504 2912 ft 172 kts 14°
2026-05-05 16:28 -32.53232 -54.16103 2912 ft 168 kts 11°
2026-05-05 16:28 -32.52085 -54.15784 2917 ft 170 kts
2026-05-05 16:29 -32.50929 -54.15484 2912 ft 171 kts
2026-05-05 16:29 -32.49766 -54.15191 2916 ft 170 kts
2026-05-05 16:29 -32.48602 -54.14988 2914 ft 169 kts
2026-05-05 16:29 -32.47438 -54.14834 2917 ft 168 kts
2026-05-05 16:30 -32.46271 -54.14695 2916 ft 169 kts
2026-05-05 16:30 -32.45096 -54.14556 2917 ft 170 kts
2026-05-05 16:30 -32.43927 -54.14500 2915 ft 167 kts 356°
2026-05-05 16:30 -32.42767 -54.14557 2913 ft 166 kts 351°
2026-05-05 16:31 -32.41630 -54.14818 2914 ft 167 kts 345°
2026-05-05 16:31 -32.40498 -54.15116 2918 ft 169 kts 345°
2026-05-05 16:31 -32.39344 -54.15415 2916 ft 170 kts 345°
2026-05-05 16:31 -32.38305 -54.15684 2919 ft 169 kts 345°
2026-05-05 16:32 -32.37157 -54.15984 2918 ft 168 kts 344°
2026-05-05 16:32 -32.36193 -54.16697 2910 ft 165 kts 316°
2026-05-05 16:32 -32.35369 -54.17654 2906 ft 167 kts 315°
2026-05-05 16:32 -32.34525 -54.18602 2892 ft 168 kts 316°
2026-05-05 16:33 -32.33675 -54.19526 2884 ft 165 kts 317°
2026-05-05 16:33 -32.32825 -54.20438 2635 ft 172 kts 318°
2026-05-05 16:33 -32.31998 -54.21474 2382 ft 169 kts 311°
2026-05-05 16:33 -32.31382 -54.22576 2309 ft 159 kts 293°
2026-05-05 16:34 -32.31309 -54.23902 2054 ft 169 kts 260°
2026-05-05 16:34 -32.31780 -54.25185 1994 ft 169 kts 245°
2026-05-05 16:34 -32.32373 -54.26368 1899 ft 166 kts 240°
2026-05-05 16:34 -32.33023 -54.27475 1755 ft 164 kts 231°
2026-05-05 16:35 -32.34064 -54.28094 1534 ft 172 kts 192°
2026-05-05 16:35 -32.35200 -54.27883 1451 ft 159 kts 153°
2026-05-05 16:35 -32.35812 -54.27013 1326 ft 130 kts 99°
2026-05-05 16:35 -32.35764 -54.25956 1008 ft 126 kts 76°
2026-05-05 16:36 -32.35527 -54.25141 839 ft 93 kts 56°
2026-05-05 16:36 -32.35180 -54.24484 801 ft 96 kts 55°
2026-05-05 16:36 -32.34828 -54.23784 670 ft 103 kts 58°
2026-05-05 16:36 -32.34456 -54.23030 506 ft 107 kts 59°
2026-05-05 16:37 -32.34116 -54.22340 380 ft 83 kts 60°
2026-05-05 16:37 -32.33855 -54.21823 370 ft 61 kts 59°
2026-05-05 16:37 -32.33684 -54.21463 370 ft 43 kts 59°
2026-05-05 16:37 -32.33549 -54.21206 370 ft 32 kts 57°
2026-05-05 16:38 -32.33477 -54.21043 370 ft 8 kts 63°
2026-05-05 16:38 -32.33462 -54.21015 370 ft 6 kts 255°
2026-05-05 16:38 -32.33509 -54.21103 370 ft 20 kts 238°
2026-05-05 16:38 -32.33606 -54.21297 370 ft 34 kts 239°
2026-05-05 16:39 -32.33747 -54.21577 370 ft 45 kts 238°
2026-05-05 16:39 -32.33929 -54.21919 370 ft 51 kts 244°
2026-05-05 16:39 -32.34042 -54.22183 370 ft 18 kts 257°
2026-05-05 16:39 -32.34007 -54.22208 370 ft 5 kts 343°
2026-05-05 16:40 -32.33955 -54.22240 370 ft 15 kts 328°
2026-05-05 16:40 -32.33933 -54.22338 370 ft 9 kts 271°
2026-05-05 16:40 -32.33926 -54.22361 370 ft 3 kts 28°
2026-05-05 16:40 -32.33924 -54.22359 370 ft 0 kts 58°